Regional Weather Roundup
Issued by NWS

Home | Current Version | Previous Version | Graphics & Text | Print | Product List | Glossary On
Versions: 1 2 3 4 5 6 7 8 9 10 11 12 13 14 15 16 17 18 19 20 21 22 23 24 25 26 27 28 29 30 31 32 33 34 35 36 37 38 39 40 41 42 43 44 45 46 47 48 49 50
000
ASUS43 KLOT 281809
RWRIL

ILLINOIS REGIONAL WEATHER ROUNDUP
NATIONAL WEATHER SERVICE CHICAGO/ROMEOVILLE IL
100 PM CDT WED JUN 28 2017

NOTE: "FAIR" INDICATES FEW OR NO CLOUDS BELOW 12,000 FEET WITH NO
SIGNIFICANT WEATHER AND/OR OBSTRUCTIONS TO VISIBILITY.

* THESE STATIONS ARE NOT UNDER NWS QUALITY CONTROL. THEY ALSO MAY NOT
  REPORT WEATHER SUCH AS PRECIPITATION OR FOG.

ILZ001-002-007-009-015-016-024-281900-
NORTHWEST ILLINOIS

CITY           SKY/WX    TMP DP  RH WIND       PRES   REMARKS
MOLINE         CLOUDY    76  66  71 S14G26    29.80R
6HR MIN TEMP:  63; 6HR MAX TEMP:  76; 6HR PCP:  1.60;

STERLING*      LGT RAIN  70  66  87 VRB7      29.85F
SAVANNA*       CLOUDY    70  65  85 S10       29.83F
$$

ILZ003-004-008-010-011-017-018-281900-
NORTH CENTRAL ILLINOIS

CITY           SKY/WX    TMP DP  RH WIND       PRES   REMARKS
ROCKFORD       CLOUDY    71  64  78 S24       29.86F
6HR MIN TEMP:  61; 6HR MAX TEMP:  71; 6HR PCP:  0.44;

FREEPORT*      CLOUDY    68  63  85 S17G25    29.85F
ROCHELLE*      CLOUDY    68  63  82 S18G32    29.86F
DE KALB*       CLOUDY    66  62  87 S18G25    29.90F
PERU*          CLOUDY    70  63  79 S13G18    29.89F
$$

ILZ005-006-012>014-019>023-281900-
NORTHEAST ILLINOIS

CITY           SKY/WX    TMP DP  RH WIND       PRES   REMARKS
CHICAGO-OHARE  CLOUDY    65  59  81 S17G28    29.91F
6HR MIN TEMP:  63; 6HR MAX TEMP:  68; 6HR PCP:  0.20;

CHICAGO-MIDWAY CLOUDY    67  60  78 S15G23    29.92F
6HR MIN TEMP:  65; 6HR MAX TEMP:  71; 6HR PCP:  0.19;

AURORA         CLOUDY    67  62  84 S20G26    29.91S
6HR MIN TEMP:  62; 6HR MAX TEMP:  67; 6HR PCP:  0.28;

LANSING*       CLOUDY    69  57  65 S13       29.97F
JOLIET*        CLOUDY    68  63  84 S7        29.94F
WAUKEGAN       CLOUDY    65  61  87 S16G28    29.89R
6HR MIN TEMP:  62; 6HR MAX TEMP:  68; 6HR PCP:  0.09;

DUPAGE AIRPORT CLOUDY    66  62  87 S16       29.91S
6HR MIN TEMP:  60; 6HR MAX TEMP:  66; 6HR PCP:  0.25;

WHEELING       CLOUDY    65  61  87 S15G23    29.93S
6HR MIN TEMP:  62; 6HR MAX TEMP:  67; 6HR PCP:  0.14;

MORRIS*        CLOUDY    68  62  80 S13       29.92F
ROMEOVILLE*    CLOUDY    65  59  79 S16       29.92F
$$

LMZ740>746-281900-
SOUTHERN LAKE MICHIGAN

STATION/POSITION SKY/WX   TEMP    WIND        PRES    VSBY  WAVE
                          AIR SEA DIR/SP/G                  HT/PER
                          (F)     (DEG/KT/KT) (MB)    (MI)  (FT/S)
SOUTHERN BUOY              64 61  180/ 17/ 21 1014.4          4/ 5
WILMETTE HARBOR            65 62  170/ 21/ 29   N/A           5/ 4
HARRISON CRIB              66     170/ 27/ 29   N/A
BURNHAM HARBOR             65                   N/A
CALUMET HARBOR             65     140/  8/ 10 1013.8F
BURNS HARBOR               72     190/  9/ 16 1016.3F
MICHIGAN CITY              71     170/ 13/ 17   N/A
MICHIGAN CITY 6N           70 66  190/ 12/ 14   N/A           2/ 3
ST. JOSEPH                 71 67  200/ 16/ 19 1016.0          2/ 3
$$

ILZ025>027-034>036-040-047-049-050-058-095>099-281900-
WEST-CENTRAL ILLINOIS

CITY           SKY/WX    TMP DP  RH WIND       PRES   REMARKS
QUINCY         MOSUNNY   81  66  60 S22G32    29.84F HX  83
GALESBURG*     CLOUDY    76  67  72 S15G21    29.86F
MACOMB*        PTSUNNY   79  65  63 S16G26    29.88S HX  81
JACKSONVILLE*  PTSUNNY   79  65  60 S14G20    29.91S HX  81
PITTSFIELD*    CLOUDY    79  66  64 S18G26    29.90F HX  81
$$

ILZ028>032-037-038-041>044-048-051>054-059>061-281900-
CENTRAL ILLINOIS

CITY           SKY/WX    TMP DP  RH WIND       PRES   REMARKS
PONTIAC        CLOUDY    79  65  62 S20       29.93F HX  80
BLOOMINGTON    CLOUDY    78  64  61 S26G35    29.92F HX  80
DECATUR        CLOUDY    80  62  54 S18       29.99F HX  81
PEORIA         CLOUDY    79  67  66 S14       29.89F HX  81
6HR MIN TEMP:  63; 6HR MAX TEMP:  79; 6HR PCP:  0.12;

LACON*         PTSUNNY   74  66  77 S14G26    29.87F
LINCOLN*       CLOUDY    80  66  61 S16G25    29.92F HX  82
SPRINGFIELD    PTSUNNY   81  66  60 S20G30    29.93F HX  83
6HR MIN TEMP:  66; 6HR MAX TEMP:  81;

TAYLORVILLE    CLOUDY    79  64  60 S15G23    29.98F HX  80
6HR MIN TEMP:  62; 6HR MAX TEMP:  80;

$$

ILZ033-039-045-046-055>057-062-063-281900-
EAST-CENTRAL ILLINOIS

CITY           SKY/WX    TMP DP  RH WIND       PRES   REMARKS
CHAMPAIGN      CLOUDY    81  60  48 S21       30.01F HX  82
RANTOUL*       CLOUDY    82  62  52 S15G24    30.00F HX  82
MATTOON        PTSUNNY   79  63  57 S13G22    30.03F HX  80
PARIS*         MOSUNNY   79  61  54 S15G23    30.05F HX  80
$$

ILZ079-100>102-281900-
SOUTHWEST ILLINOIS

CITY           SKY/WX    TMP DP  RH WIND       PRES   REMARKS
ALTON          PTSUNNY   81  66  61 S15G23    29.98S HX  83
BELLEVILLE     PTSUNNY   82  65  56 SW16G24   29.99F HX  84
CAHOKIA*       CLOUDY    85  63  47 S13G20    29.97F HX  86
SPARTA*        CLOUDY    83  64  52 S16       30.02F HX  84
$$

ILZ064>066-069>071-074>076-080>082-084>086-088>090-092>094-281900-
SOUTH-CENTRAL ILLINOIS

CITY           SKY/WX    TMP DP  RH WIND       PRES   REMARKS
CARBONDALE     CLOUDY    83  66  56 SW16G24   30.03F HX  85
6HR MIN TEMP:  63; 6HR MAX TEMP:  84;

CAIRO*         MOSUNNY   84  64  51 S9        30.04F HX  85
EFFINGHAM*     CLOUDY    82  64  53 S13G21    30.04F HX  83
MARION         PTSUNNY   82  66  57 S9        30.05F HX  85
MT. VERNON     PTSUNNY   83  65  54 S16       30.03F HX  85
CENTRALIA*     MOSUNNY   84  67  56 S14G22    30.02F HX  87
SALEM*         CLOUDY    82  63  52 S15G21    30.02F HX  83
METROPOLIS*    LGT RAIN  84  65  52 SE9       30.06F HX  86
$$

ILZ067-068-072-073-078-083-087-091-281900-
SOUTHEAST ILLINOIS

CITY           SKY/WX    TMP DP  RH WIND       PRES   REMARKS
LAWRENCEVILLE  MOSUNNY   80  58  46 S14       30.07F HX  80
FLORA*         PTSUNNY   84  63  49 S14G22    30.04F HX  84
FAIRFIELD*     CLOUDY    82  63  53 S6        30.04F HX  83
HARRISBURG*    MOSUNNY   82  66  57 S13       30.05F HX  84
ROBINSON*      MOSUNNY   79  59  49 S13       30.07F HX  80
CARMI*         CLOUDY    83  64  53 S12       30.05F HX  84
$$

ABBREVIATIONS USED IN REMARKS
   TC - TEMPERATURE IN CELSIUS
  WCI - WIND CHILL INDEX
   HX - HEAT INDEX
  VSB - VISIBILITY
$$





USA.gov is the U.S. government's official web portal to all federal, state and local government web resources and services.